sat.trackr.live / text

‹ back to catalog

ONEWEB-0309

NORAD 49095 · 2021-075W

PAYLOAD ACTIVE UNKNOWN

§ Identity

Operator
Country
UK
Launch date
2021-08-21
Launch site
TYMSC
Launch vehicle
Mass (kg)
RCS (m²)

Purposes: comms

External: N2YO · Heavens-Above · Gunter

§ Orbital elements

Epoch: 2026-05-25T01:55:44.978880Z

Period
109.29 min
Inclination
87.9152°
Eccentricity
0.0001398
Mean motion
13.17650184 rev/d
Perigee alt
1,192.7 km
Apogee alt
1,194.8 km
Semi-major
7,571.8 km
B*
9.0883e-5
RAAN
10.4585°
Arg perigee
96.5893°
Mean anomaly
263.5398°
Rev number
23,053

§ Raw data

ONEWEB-03091 49095U 21075W   26145.08038170  .00000048  00000+0  90883-4 0  99902 49095  87.9152  10.4585 0001398  96.5893 263.5398 13.17650184230530

JSON: /api/v1/satellites/49095 · /tle

For live sub-satellite position, see the globe view (requires WebGL).

§ Visibility from observer

Set your observer location to see the next 7 days of passes ≥ 10°. The values pass through the URL so the page stays shareable.

No JS? Fill the form by hand. The geolocation button needs JavaScript.